Location: Glencliff
(36.1226°N, 86.7183°W)
Time: 02:31:56
(UTC+00:00)

Cosmos 1408 - Pass Details

Date: 25 August 2019
Orbit: 470 x 497 km, 82.6° (Epoch: 15 September)

Event Time Altitude Azimuth Distance (km) Brightness Sun altitude
Rises 08:59:03 0° 2° (N) 2,520 6.7 -25.2°
Reaches altitude 10° 09:01:14 10° 10° (N) 1,639 5.8 -24.8°
Maximum altitude 09:04:36 38° 80° (E) 736 3.9 -24.3°
Enters shadow 09:05:35 31° 118° (ESE) 851 4.0 -24.1°
